sat.trackr.live / text

‹ back to catalog

DS-EO

NORAD 52935 · 2022-072A

PAYLOAD ACTIVE UNKNOWN

§ Identity

Operator
Country
SING
Launch date
2022-06-30
Launch site
SRILR
Launch vehicle
Mass (kg)
RCS (m²)

External: N2YO · Heavens-Above · Gunter

§ Orbital elements

Epoch: 2026-09-20T23:24:46.454688Z

Period
95.08 min
Inclination
9.9920°
Eccentricity
0.0004259
Mean motion
15.14484883 rev/d
Perigee alt
519.6 km
Apogee alt
525.5 km
Semi-major
6,900.7 km
B*
1.3428e-4
RAAN
186.7472°
Arg perigee
282.1873°
Mean anomaly
77.7865°
Rev number
23,305

§ Raw data

DS-EO1 52935U 22072A   26263.97553767  .00003372  00000+0  13428-3 0  99902 52935   9.9920 186.7472 0004259 282.1873  77.7865 15.14484883233050

JSON: /api/v1/satellites/52935 · /tle

For live sub-satellite position, see the globe view (requires WebGL).

§ Visibility from observer

Set your observer location to see the next 7 days of passes ≥ 10°. The values pass through the URL so the page stays shareable.

No JS? Fill the form by hand. The geolocation button needs JavaScript.